Ketchikan, AK

10:15 PM AKDT on September 20, 2018 (GMT -0800)
Ketchikan International

Weather History for PAKT - October, 2017

Change the Weather History Date:

Sunday, October 29, 2017

  Actual Average Record
Temperature  
Mean Temperature 48 °F -  
Max Temperature 53 °F 47 °F 55 °F (1952)
Min Temperature 41 °F 36 °F 25 °F (1991)
Degree Days  
Heating Degree Days 18    
Moisture  
Dew Point 37 °F    
Average Humidity 72    
Maximum Humidity 93    
Minimum Humidity 47    
Precipitation  
Precipitation 0.00 in - - ()
Sea Level Pressure  
Sea Level Pressure 30.33 in    
Wind  
Wind Speed 13 mph (NW)    
Max Wind Speed 16 mph    
Max Gust Speed -    
Visibility 10 miles    
Events      
Averages and records for this station are not official NWS values.
T = Trace of Precipitation, MM = Missing Value Source: NWS Daily Summary

Daily Weather History Graph

Daily Weather History Graph

Search for Another Location

Airport or City:

Astronomy

Oct. 29, 2017 Rise Set
Actual Time 7:46 AM AKDT 5:13 PM AKDT
Civil Twilight 7:07 AM AKDT 5:52 PM AKDT
Nautical Twilight 6:24 AM AKDT 6:35 PM AKDT
Astronomical Twilight 5:42 AM AKDT 7:17 PM AKDT
Moon 3:37 PM AKDT (10/29) 12:25 AM AKDT (10/29)
Length of Visible Light 10h 44m
Length of Day
9h 27m
Waxing Gibbous, 68% of the Moon is Illuminated
Oct 29
Waxing Gibbous
Nov 3
Full
Nov 10
Last Quarter
Nov 18
New
Nov 26
First Quarter

Hourly Weather History & Observations

Time (AKDT) Temp. Windchill Dew Point Humidity Pressure Visibility Wind Dir Wind Speed Gust Speed Precip Events Conditions
12:53 AM 45.0 °F 38.9 °F 37.9 °F 76% 30.29 in 10.0 mi NNW 12.7 mph - N/A   Clear
1:53 AM 45.0 °F 38.2 °F 37.0 °F 74% 30.29 in 10.0 mi NNW 15.0 mph - N/A   Clear
2:53 AM 45.0 °F 38.2 °F 36.0 °F 71% 30.29 in 10.0 mi NNW 15.0 mph - N/A   Clear
3:53 AM 46.0 °F 39.6 °F 34.0 °F 63% 30.29 in 10.0 mi NNW 15.0 mph - N/A   Clear
4:53 AM 43.0 °F 36.8 °F 36.0 °F 76% 30.29 in 10.0 mi NNW 11.5 mph - N/A   Clear
5:53 AM 44.1 °F 37.1 °F 34.0 °F 68% 30.30 in 10.0 mi NNW 15.0 mph - N/A   Clear
6:53 AM 44.1 °F 37.7 °F 34.0 °F 68% 30.30 in 10.0 mi NNW 12.7 mph - N/A   Clear
7:53 AM 44.1 °F 37.4 °F 34.0 °F 68% 30.31 in 10.0 mi NNW 13.8 mph - N/A   Clear
8:53 AM 46.0 °F 40.6 °F 33.1 °F 61% 30.31 in 10.0 mi NNW 11.5 mph - N/A   Clear
9:53 AM 48.9 °F - 32.0 °F 52% 30.32 in 10.0 mi NNW 15.0 mph - N/A   Clear
10:53 AM 51.8 °F - 32.0 °F 47% 30.32 in 10.0 mi NNW 16.1 mph - N/A   Clear
11:53 AM 51.1 °F - 36.0 °F 56% 30.32 in 10.0 mi NNW 16.1 mph - N/A   Clear
12:53 PM 52.0 °F - 36.0 °F 54% 30.32 in 10.0 mi NNW 16.1 mph - N/A   Clear
1:53 PM 53.1 °F - 36.0 °F 52% 30.32 in 10.0 mi NNW 16.1 mph - N/A   Clear
2:53 PM 52.0 °F - 39.0 °F 61% 30.33 in 10.0 mi NNW 13.8 mph - N/A   Clear
3:53 PM 48.0 °F - 41.0 °F 77% 30.33 in 10.0 mi NW 13.8 mph - N/A   Clear
4:53 PM 48.2 °F - 41.0 °F 76% 30.33 in 10.0 mi NW 13.8 mph - N/A   Clear
5:53 PM 46.0 °F 40.2 °F 42.1 °F 86% 30.34 in 10.0 mi NW 12.7 mph - N/A   Clear
6:53 PM 45.0 °F 40.1 °F 41.0 °F 86% 30.35 in 10.0 mi NW 9.2 mph - N/A   Clear
7:53 PM 46.0 °F 39.6 °F 43.0 °F 89% 30.36 in 10.0 mi NNW 15.0 mph - N/A   Clear
8:53 PM 45.0 °F 39.7 °F 42.1 °F 90% 30.37 in 10.0 mi NW 10.4 mph - N/A   Clear
9:53 PM 43.0 °F 38.8 °F 39.9 °F 89% 30.38 in 10.0 mi WNW 6.9 mph - N/A   Clear
10:53 PM 42.1 °F 38.4 °F 39.0 °F 89% 30.38 in 10.0 mi NW 5.8 mph - N/A   Clear
11:53 PM 41.0 °F 36.4 °F 39.0 °F 93% 30.37 in 10.0 mi WNW 6.9 mph - N/A   Clear